Location: Saint-Palais-sur-Mer
(45.6429°N, 1.0859°W)
Time: 23:23:23
(UTC+01:00)

Vanguard 1 - Pass Details

Date: 12 February 2026
Orbit: 653 x 3818 km, 34.2° (Epoch: 12 March)

Event Time Altitude Azimuth Distance (km) Brightness Sun altitude
Rises 19:00:43 0° 247° (WSW) 5,773 16.2 -6.6°
Reaches altitude 10° 19:03:58 10° 243° (WSW) 5,113 15.2 -7.1°
Maximum altitude 19:20:00 58° 170° (S) 3,785 13.0 -9.9°
Enters shadow 19:41:19 12° 100° (E) 6,684 13.7 -13.6°
